Wetterdaten: Dienstag, 16.09.2014
Datum Zeit Temperatur Luftfeuchte Luftdruck Regen Wind Richtung Richtung Taupunkt Windchill Windben
16.09.2014 00:00 10,2 C 92 % 1018,5 hPa 0,0 l/m 0,0 km/h (0 Bft) SO 135 9,0 C 11,6 C 0,0 km/h (0 Bft)
16.09.2014 00:10 9,8 C 92 % 1018,5 hPa 0,0 l/m 0,0 km/h (0 Bft) SO 135 8,6 C 11,6 C 0,0 km/h (0 Bft)
16.09.2014 00:20 9,7 C 92 % 1018,5 hPa 0,0 l/m 0,0 km/h (0 Bft) SO 135 8,5 C 11,6 C 0,0 km/h (0 Bft)
16.09.2014 00:30 9,2 C 92 % 1018,3 hPa 0,0 l/m 0,0 km/h (0 Bft) SO 135 8,0 C 11,6 C 0,0 km/h (0 Bft)
16.09.2014 00:40 9,1 C 92 % 1018,3 hPa 0,0 l/m 0,0 km/h (0 Bft) SO 135 7,9 C 11,6 C 0,0 km/h (0 Bft)
16.09.2014 00:50 8,9 C 92 % 1018,2 hPa 0,0 l/m 0,0 km/h (0 Bft) SO 135 7,7 C 11,6 C 0,0 km/h (0 Bft)
16.09.2014 01:00 9,2 C 92 % 1018,2 hPa 0,0 l/m 0,0 km/h (0 Bft) SO 135 8,0 C 11,6 C 0,0 km/h (0 Bft)
16.09.2014 01:10 8,8 C 92 % 1018,1 hPa 0,0 l/m 0,0 km/h (0 Bft) SO 135 7,6 C 11,6 C 0,0 km/h (0 Bft)
16.09.2014 01:18 8,5 C 92 % 1018,1 hPa 0,0 l/m 0,0 km/h (0 Bft) SO 135 7,3 C 11,6 C 0,0 km/h (0 Bft)
16.09.2014 01:20 8,5 C 92 % 1018,1 hPa 0,0 l/m 0,0 km/h (0 Bft) SO 135 7,3 C 11,6 C 0,0 km/h (0 Bft)
16.09.2014 01:30 8,2 C 92 % 1018,1 hPa 0,0 l/m 0,0 km/h (0 Bft) SO 135 7,0 C 11,6 C 0,0 km/h (0 Bft)
16.09.2014 01:40 8,5 C 92 % 1018,1 hPa 0,0 l/m 0,0 km/h (0 Bft) SO 135 7,3 C 11,6 C 0,0 km/h (0 Bft)
16.09.2014 01:50 8,5 C 92 % 1018,2 hPa 0,0 l/m 0,0 km/h (0 Bft) SO 135 7,3 C 7,9 C 0,0 km/h (0 Bft)
16.09.2014 02:00 8,2 C 92 % 1018,2 hPa 0,0 l/m 0,0 km/h (0 Bft) O-SO 112 7,0 C 8,0 C 0,0 km/h (0 Bft)
16.09.2014 02:10 8,4 C 92 % 1018,2 hPa 0,0 l/m 0,2 km/h (0 Bft) O-SO 112 7,2 C 8,1 C 0,0 km/h (0 Bft)
16.09.2014 02:20 8,1 C 92 % 1018,2 hPa 0,0 l/m 0,0 km/h (0 Bft) O-SO 112 6,9 C 8,0 C 0,0 km/h (0 Bft)
16.09.2014 02:30 8,3 C 92 % 1018,0 hPa 0,0 l/m 0,2 km/h (0 Bft) S-SO 157 7,1 C 8,0 C 1,9 km/h (1 Bft)
16.09.2014 02:40 8,1 C 93 % 1018,0 hPa 0,0 l/m 0,6 km/h (0 Bft) SO 135 7,0 C 8,1 C 3,1 km/h (1 Bft)
16.09.2014 02:50 7,8 C 93 % 1018,0 hPa 0,0 l/m 0,0 km/h (0 Bft) O-SO 112 6,7 C 7,8 C 0,0 km/h (0 Bft)
16.09.2014 03:00 7,8 C 93 % 1018,0 hPa 0,0 l/m 0,0 km/h (0 Bft) O-SO 112 6,7 C 7,6 C 0,0 km/h (0 Bft)
16.09.2014 03:10 7,8 C 93 % 1018,0 hPa 0,0 l/m 0,2 km/h (0 Bft) O-SO 112 6,7 C 7,6 C 0,0 km/h (0 Bft)
16.09.2014 03:20 8,1 C 93 % 1018,0 hPa 0,0 l/m 0,2 km/h (0 Bft) SO 135 7,0 C 7,6 C 0,0 km/h (0 Bft)
16.09.2014 03:30 8,7 C 93 % 1017,9 hPa 0,0 l/m 0,2 km/h (0 Bft) SO 135 7,6 C 7,6 C 0,0 km/h (0 Bft)
16.09.2014 03:40 8,5 C 94 % 1017,9 hPa 0,0 l/m 0,0 km/h (0 Bft) SO 135 7,6 C 7,6 C 0,0 km/h (0 Bft)
16.09.2014 03:50 8,3 C 94 % 1017,7 hPa 0,0 l/m 0,0 km/h (0 Bft) SO 135 7,4 C 7,6 C 0,0 km/h (0 Bft)
16.09.2014 04:00 7,9 C 94 % 1017,7 hPa 0,0 l/m 0,0 km/h (0 Bft) SO 135 7,0 C 7,6 C 0,0 km/h (0 Bft)
16.09.2014 04:10 7,8 C 94 % 1017,7 hPa 0,0 l/m 0,0 km/h (0 Bft) SO 135 6,9 C 7,6 C 0,0 km/h (0 Bft)
16.09.2014 04:19 7,4 C 94 % 1017,7 hPa 0,0 l/m 0,0 km/h (0 Bft) SO 135 6,5 C 7,6 C 0,0 km/h (0 Bft)
16.09.2014 04:20 7,4 C 94 % 1017,7 hPa 0,0 l/m 0,0 km/h (0 Bft) SO 135 6,5 C 7,6 C 0,0 km/h (0 Bft)
16.09.2014 04:30 7,8 C 94 % 1017,9 hPa 0,0 l/m 0,0 km/h (0 Bft) SO 135 6,9 C 7,6 C 0,0 km/h (0 Bft)
16.09.2014 04:40 7,3 C 94 % 1017,9 hPa 0,0 l/m 0,0 km/h (0 Bft) SO 135 6,4 C 7,6 C 0,0 km/h (0 Bft)
16.09.2014 04:50 7,3 C 94 % 1017,8 hPa 0,0 l/m 0,0 km/h (0 Bft) SO 135 6,4 C 7,6 C 0,0 km/h (0 Bft)
16.09.2014 05:00 7,2 C 94 % 1017,8 hPa 0,0 l/m 0,0 km/h (0 Bft) SO 135 6,3 C 7,6 C 0,0 km/h (0 Bft)
16.09.2014 05:10 7,5 C 94 % 1017,8 hPa 0,0 l/m 0,0 km/h (0 Bft) SO 135 6,6 C 7,6 C 0,0 km/h (0 Bft)
16.09.2014 05:20 7,6 C 95 % 1017,8 hPa 0,0 l/m 0,0 km/h (0 Bft) SO 135 6,9 C 7,6 C 0,0 km/h (0 Bft)
16.09.2014 05:30 7,3 C 94 % 1017,9 hPa 0,0 l/m 0,0 km/h (0 Bft) SO 135 6,4 C 7,6 C 0,0 km/h (0 Bft)
16.09.2014 05:40 7,5 C 95 % 1017,9 hPa 0,0 l/m 0,0 km/h (0 Bft) SO 135 6,8 C 7,6 C 0,0 km/h (0 Bft)
16.09.2014 05:50 7,4 C 95 % 1017,9 hPa 0,0 l/m 0,0 km/h (0 Bft) SO 135 6,7 C 7,6 C 0,0 km/h (0 Bft)
16.09.2014 06:00 7,1 C 95 % 1017,9 hPa 0,0 l/m 0,0 km/h (0 Bft) SO 135 6,4 C 7,6 C 0,0 km/h (0 Bft)
16.09.2014 06:10 7,5 C 95 % 1017,8 hPa 0,0 l/m 0,0 km/h (0 Bft) SO 135 6,8 C 7,6 C 0,0 km/h (0 Bft)
16.09.2014 06:20 7,4 C 95 % 1017,8 hPa 0,0 l/m 0,0 km/h (0 Bft) SO 135 6,7 C 7,6 C 0,0 km/h (0 Bft)
16.09.2014 06:30 6,9 C 95 % 1017,8 hPa 0,0 l/m 0,0 km/h (0 Bft) SO 135 6,2 C 7,6 C 0,0 km/h (0 Bft)
16.09.2014 06:40 7,1 C 95 % 1017,8 hPa 0,0 l/m 0,0 km/h (0 Bft) SO 135 6,4 C 7,6 C 0,0 km/h (0 Bft)
16.09.2014 06:50 6,8 C 95 % 1017,9 hPa 0,0 l/m 0,0 km/h (0 Bft) S-SO 157 6,1 C 6,7 C 0,0 km/h (0 Bft)
16.09.2014 07:00 6,8 C 95 % 1017,9 hPa 0,0 l/m 0,0 km/h (0 Bft) O-NO 67 6,1 C 6,8 C 0,0 km/h (0 Bft)
16.09.2014 07:10 7,2 C 95 % 1017,9 hPa 0,0 l/m 0,0 km/h (0 Bft) SO 135 6,5 C 6,9 C 0,0 km/h (0 Bft)
16.09.2014 07:20 7,5 C 95 % 1017,9 hPa 0,0 l/m 0,0 km/h (0 Bft) S 180 6,8 C 7,1 C 0,0 km/h (0 Bft)
16.09.2014 07:30 7,4 C 95 % 1018,2 hPa 0,0 l/m 0,0 km/h (0 Bft) O 90 6,7 C 7,2 C 0,0 km/h (0 Bft)
16.09.2014 07:40 7,7 C 95 % 1018,2 hPa 0,0 l/m 0,0 km/h (0 Bft) S-SO 157 7,0 C 7,4 C 0,0 km/h (0 Bft)
16.09.2014 07:50 7,8 C 95 % 1018,2 hPa 0,0 l/m 0,0 km/h (0 Bft) S-SO 157 7,0 C 7,5 C 0,0 km/h (0 Bft)
16.09.2014 08:00 7,8 C 95 % 1018,2 hPa 0,0 l/m 0,0 km/h (0 Bft) S-SO 157 7,0 C 7,8 C 0,0 km/h (0 Bft)
16.09.2014 08:10 8,3 C 95 % 1018,2 hPa 0,0 l/m 0,0 km/h (0 Bft) S-SO 157 7,5 C 8,2 C 0,0 km/h (0 Bft)
16.09.2014 08:18 8,8 C 95 % 1018,2 hPa 0,0 l/m 0,2 km/h (0 Bft) S 180 8,0 C 9,0 C 0,0 km/h (0 Bft)
16.09.2014 08:20 8,8 C 95 % 1018,2 hPa 0,0 l/m 0,2 km/h (0 Bft) S 180 8,0 C 9,0 C 0,0 km/h (0 Bft)
16.09.2014 08:30 10,2 C 95 % 1018,2 hPa 0,0 l/m 0,0 km/h (0 Bft) S-SW 202 9,4 C 12,9 C 0,0 km/h (0 Bft)
16.09.2014 08:40 10,8 C 95 % 1018,2 hPa 0,0 l/m 0,0 km/h (0 Bft) NW 315 10,0 C 15,4 C 0,0 km/h (0 Bft)
16.09.2014 08:50 10,7 C 95 % 1018,1 hPa 0,0 l/m 0,0 km/h (0 Bft) SW 225 9,9 C 17,3 C 0,0 km/h (0 Bft)
16.09.2014 09:00 13,6 C 94 % 1018,1 hPa 0,0 l/m 0,0 km/h (0 Bft) W-SW 247 12,7 C 18,8 C 0,0 km/h (0 Bft)
16.09.2014 09:10 15,6 C 92 % 1018,2 hPa 0,0 l/m 0,0 km/h (0 Bft) S-SW 202 14,3 C 20,2 C 0,0 km/h (0 Bft)
16.09.2014 09:20 16,2 C 87 % 1018,2 hPa 0,0 l/m 0,0 km/h (0 Bft) SO 135 14,0 C 20,7 C 0,0 km/h (0 Bft)
16.09.2014 09:30 17,1 C 84 % 1018,1 hPa 0,0 l/m 0,2 km/h (0 Bft) S-SO 157 14,4 C 21,5 C 0,0 km/h (0 Bft)
16.09.2014 09:40 18,2 C 82 % 1018,1 hPa 0,0 l/m 0,5 km/h (0 Bft) SO 135 15,1 C 21,8 C 0,0 km/h (0 Bft)
16.09.2014 09:50 18,9 C 80 % 1018,2 hPa 0,0 l/m 0,3 km/h (0 Bft) S-SO 157 15,4 C 22,8 C 0,0 km/h (0 Bft)
16.09.2014 10:00 19,6 C 79 % 1018,2 hPa 0,0 l/m 0,3 km/h (0 Bft) S-SO 157 15,9 C 22,8 C 0,0 km/h (0 Bft)
16.09.2014 10:10 19,9 C 76 % 1018,8 hPa 0,0 l/m 0,0 km/h (0 Bft) S-SO 157 15,5 C 22,8 C 0,0 km/h (0 Bft)
16.09.2014 10:20 20,9 C 78 % 1018,8 hPa 0,0 l/m 0,0 km/h (0 Bft) S-SO 157 16,9 C 22,8 C 0,0 km/h (0 Bft)
16.09.2014 10:30 20,2 C 73 % 1019,4 hPa 0,0 l/m 0,0 km/h (0 Bft) S-SO 157 15,2 C 22,8 C 0,0 km/h (0 Bft)
16.09.2014 10:40 20,3 C 72 % 1019,4 hPa 0,0 l/m 0,0 km/h (0 Bft) S-SO 157 15,1 C 22,8 C 0,0 km/h (0 Bft)
16.09.2014 10:50 21,1 C 69 % 1019,8 hPa 0,0 l/m 0,0 km/h (0 Bft) S-SO 157 15,2 C 22,8 C 0,0 km/h (0 Bft)
16.09.2014 11:00 22,4 C 59 % 1019,8 hPa 0,0 l/m 0,0 km/h (0 Bft) S-SO 157 14,0 C 22,8 C 0,0 km/h (0 Bft)
16.09.2014 11:10 23,3 C 62 % 1019,8 hPa 0,0 l/m 0,0 km/h (0 Bft) S-SO 157 15,6 C 22,8 C 0,0 km/h (0 Bft)
16.09.2014 11:19 23,1 C 55 % 1019,8 hPa 0,0 l/m 0,0 km/h (0 Bft) S-SO 157 13,6 C 22,8 C 0,0 km/h (0 Bft)
16.09.2014 11:20 23,1 C 55 % 1019,8 hPa 0,0 l/m 0,0 km/h (0 Bft) S-SO 157 13,6 C 22,8 C 0,0 km/h (0 Bft)
16.09.2014 11:30 23,1 C 55 % 1019,6 hPa 0,0 l/m 0,0 km/h (0 Bft) S-SO 157 13,6 C 22,8 C 0,0 km/h (0 Bft)
16.09.2014 11:40 24,4 C 57 % 1019,6 hPa 0,0 l/m 0,0 km/h (0 Bft) S-SO 157 15,3 C 22,8 C 0,0 km/h (0 Bft)
16.09.2014 11:50 24,4 C 49 % 1019,7 hPa 0,0 l/m 0,0 km/h (0 Bft) S-SO 157 13,0 C 22,8 C 0,0 km/h (0 Bft)
16.09.2014 12:00 24,4 C 51 % 1019,7 hPa 0,0 l/m 0,0 km/h (0 Bft) S-SO 157 13,6 C 22,8 C 0,0 km/h (0 Bft)
16.09.2014 12:10 25,0 C 49 % 1019,9 hPa 0,0 l/m 0,0 km/h (0 Bft) S-SO 157 13,5 C 22,8 C 0,0 km/h (0 Bft)
16.09.2014 12:20 25,2 C 46 % 1019,9 hPa 0,0 l/m 0,0 km/h (0 Bft) S-SO 157 12,7 C 22,8 C 0,0 km/h (0 Bft)
16.09.2014 12:30 24,7 C 44 % 1019,8 hPa 0,0 l/m 0,0 km/h (0 Bft) S-SO 157 11,6 C 22,8 C 0,0 km/h (0 Bft)
16.09.2014 12:40 22,5 C 53 % 1019,8 hPa 0,0 l/m 0,0 km/h (0 Bft) S-SO 157 12,4 C 22,8 C 0,0 km/h (0 Bft)
16.09.2014 12:50 21,5 C 57 % 1019,8 hPa 0,0 l/m 0,0 km/h (0 Bft) S-SO 157 12,6 C 22,8 C 0,0 km/h (0 Bft)
16.09.2014 13:00 24,3 C 50 % 1019,8 hPa 0,0 l/m 0,0 km/h (0 Bft) S-SO 157 13,2 C 22,8 C 0,0 km/h (0 Bft)
16.09.2014 13:10 22,7 C 56 % 1019,5 hPa 0,0 l/m 0,0 km/h (0 Bft) S-SO 157 13,5 C 22,8 C 0,0 km/h (0 Bft)
16.09.2014 13:20 22,8 C 53 % 1019,5 hPa 0,0 l/m 0,0 km/h (0 Bft) S-SO 157 12,7 C 22,8 C 0,0 km/h (0 Bft)
16.09.2014 13:30 22,9 C 55 % 1019,5 hPa 0,0 l/m 0,0 km/h (0 Bft) S-SO 157 13,4 C 22,8 C 0,0 km/h (0 Bft)
16.09.2014 13:40 22,7 C 54 % 1019,5 hPa 0,0 l/m 0,0 km/h (0 Bft) S-SO 157 12,9 C 22,8 C 0,0 km/h (0 Bft)
16.09.2014 13:50 23,3 C 50 % 1019,3 hPa 0,0 l/m 0,0 km/h (0 Bft) S-SO 157 12,3 C 22,8 C 0,0 km/h (0 Bft)
16.09.2014 14:00 23,2 C 49 % 1019,3 hPa 0,0 l/m 0,0 km/h (0 Bft) S-SO 157 11,9 C 22,8 C 0,0 km/h (0 Bft)
16.09.2014 14:10 23,0 C 52 % 1019,2 hPa 0,0 l/m 0,0 km/h (0 Bft) S-SO 157 12,6 C 22,8 C 0,0 km/h (0 Bft)
16.09.2014 14:19 22,4 C 56 % 1019,2 hPa 0,0 l/m 0,0 km/h (0 Bft) S-SO 157 13,2 C 22,8 C 0,0 km/h (0 Bft)
16.09.2014 14:20 22,4 C 56 % 1019,2 hPa 0,0 l/m 0,0 km/h (0 Bft) S-SO 157 13,2 C 22,8 C 0,0 km/h (0 Bft)
16.09.2014 14:30 23,7 C 50 % 1019,1 hPa 0,0 l/m 0,0 km/h (0 Bft) S-SO 157 12,6 C 22,8 C 0,0 km/h (0 Bft)
16.09.2014 14:40 24,1 C 48 % 1019,1 hPa 0,0 l/m 0,0 km/h (0 Bft) S-SO 157 12,4 C 22,8 C 0,0 km/h (0 Bft)
16.09.2014 14:50 23,8 C 47 % 1019,1 hPa 0,0 l/m 0,0 km/h (0 Bft) S-SO 157 11,8 C 22,8 C 0,0 km/h (0 Bft)
16.09.2014 15:00 21,5 C 54 % 1019,1 hPa 0,0 l/m 0,0 km/h (0 Bft) S-SO 157 11,8 C 22,8 C 0,0 km/h (0 Bft)
16.09.2014 15:10 20,6 C 58 % 1019,1 hPa 0,0 l/m 0,0 km/h (0 Bft) S-SO 157 12,0 C 22,8 C 0,0 km/h (0 Bft)
16.09.2014 15:20 19,9 C 61 % 1019,1 hPa 0,0 l/m 0,0 km/h (0 Bft) S-SO 157 12,2 C 22,8 C 0,0 km/h (0 Bft)
16.09.2014 15:30 22,4 C 57 % 1018,6 hPa 0,0 l/m 0,0 km/h (0 Bft) S-SO 157 13,5 C 22,8 C 0,0 km/h (0 Bft)
16.09.2014 15:40 22,3 C 49 % 1018,6 hPa 0,0 l/m 0,0 km/h (0 Bft) S-SO 157 11,1 C 22,8 C 0,0 km/h (0 Bft)
16.09.2014 15:50 21,4 C 54 % 1018,6 hPa 0,0 l/m 0,0 km/h (0 Bft) S-SO 157 11,7 C 22,8 C 0,0 km/h (0 Bft)
16.09.2014 16:00 22,3 C 51 % 1018,6 hPa 0,0 l/m 0,0 km/h (0 Bft) S-SO 157 11,7 C 22,8 C 0,0 km/h (0 Bft)
16.09.2014 16:10 22,0 C 49 % 1018,6 hPa 0,0 l/m 0,0 km/h (0 Bft) S-SO 157 10,8 C 22,8 C 0,0 km/h (0 Bft)
16.09.2014 16:20 21,9 C 53 % 1018,6 hPa 0,0 l/m 0,0 km/h (0 Bft) S-SO 157 11,9 C 22,8 C 0,0 km/h (0 Bft)
16.09.2014 16:30 22,0 C 52 % 1018,5 hPa 0,0 l/m 0,0 km/h (0 Bft) S-SO 157 11,7 C 22,8 C 0,0 km/h (0 Bft)
16.09.2014 16:40 21,2 C 55 % 1018,5 hPa 0,0 l/m 0,0 km/h (0 Bft) S-SO 157 11,8 C 22,8 C 0,0 km/h (0 Bft)
16.09.2014 16:50 21,4 C 55 % 1018,4 hPa 0,0 l/m 0,0 km/h (0 Bft) S-SO 157 12,0 C 22,8 C 0,0 km/h (0 Bft)
16.09.2014 17:00 20,9 C 58 % 1018,4 hPa 0,0 l/m 0,0 km/h (0 Bft) S-SO 157 12,3 C 22,8 C 0,0 km/h (0 Bft)
16.09.2014 17:10 19,9 C 62 % 1018,6 hPa 0,0 l/m 0,0 km/h (0 Bft) S-SO 157 12,4 C 22,8 C 0,0 km/h (0 Bft)
16.09.2014 17:19 19,9 C 65 % 1018,6 hPa 0,0 l/m 0,0 km/h (0 Bft) S-SO 157 13,1 C 22,8 C 0,0 km/h (0 Bft)
16.09.2014 17:20 19,9 C 65 % 1018,6 hPa 0,0 l/m 0,0 km/h (0 Bft) S-SO 157 13,1 C 22,8 C 0,0 km/h (0 Bft)
16.09.2014 17:30 19,0 C 67 % 1018,2 hPa 0,0 l/m 0,0 km/h (0 Bft) S-SO 157 12,7 C 22,8 C 0,0 km/h (0 Bft)
16.09.2014 17:40 19,4 C 68 % 1018,2 hPa 0,0 l/m 0,0 km/h (0 Bft) S-SO 157 13,3 C 22,8 C 0,0 km/h (0 Bft)
16.09.2014 17:50 19,2 C 68 % 1019,4 hPa 0,0 l/m 0,0 km/h (0 Bft) S-SO 157 13,1 C 22,8 C 0,0 km/h (0 Bft)
16.09.2014 18:00 19,0 C 69 % 1019,4 hPa 0,0 l/m 0,0 km/h (0 Bft) S-SO 157 13,2 C 22,8 C 0,0 km/h (0 Bft)
16.09.2014 18:10 18,4 C 70 % 1019,1 hPa 0,0 l/m 0,0 km/h (0 Bft) S-SO 157 12,8 C 22,8 C 0,0 km/h (0 Bft)
16.09.2014 18:20 18,2 C 72 % 1019,1 hPa 0,0 l/m 0,0 km/h (0 Bft) S-SO 157 13,1 C 22,8 C 0,0 km/h (0 Bft)
16.09.2014 18:30 17,9 C 73 % 1018,5 hPa 0,0 l/m 0,0 km/h (0 Bft) S-SO 157 13,0 C 22,8 C 0,0 km/h (0 Bft)
16.09.2014 18:40 17,8 C 73 % 1018,5 hPa 0,0 l/m 0,0 km/h (0 Bft) S-SO 157 12,9 C 22,8 C 0,0 km/h (0 Bft)
16.09.2014 18:50 17,5 C 75 % 1018,1 hPa 0,0 l/m 0,0 km/h (0 Bft) S-SO 157 13,0 C 22,8 C 0,0 km/h (0 Bft)
16.09.2014 19:00 17,2 C 76 % 1018,1 hPa 0,0 l/m 0,0 km/h (0 Bft) S-SO 157 12,9 C 22,8 C 0,0 km/h (0 Bft)
16.09.2014 19:10 16,6 C 77 % 1018,6 hPa 0,0 l/m 0,0 km/h (0 Bft) S-SO 157 12,5 C 22,8 C 0,0 km/h (0 Bft)
16.09.2014 19:20 16,1 C 78 % 1018,6 hPa 0,0 l/m 0,0 km/h (0 Bft) S-SO 157 12,3 C 22,8 C 0,0 km/h (0 Bft)
16.09.2014 19:30 15,9 C 80 % 1017,9 hPa 0,0 l/m 0,0 km/h (0 Bft) S-SO 157 12,5 C 22,8 C 0,0 km/h (0 Bft)
16.09.2014 19:40 15,5 C 80 % 1017,9 hPa 0,0 l/m 0,0 km/h (0 Bft) S-SO 157 12,1 C 22,8 C 0,0 km/h (0 Bft)
16.09.2014 19:50 15,3 C 81 % 1018,1 hPa 0,0 l/m 0,0 km/h (0 Bft) S-SO 157 12,1 C 22,8 C 0,0 km/h (0 Bft)
16.09.2014 20:00 15,0 C 82 % 1018,1 hPa 0,0 l/m 0,0 km/h (0 Bft) S-SO 157 12,0 C 22,8 C 0,0 km/h (0 Bft)
16.09.2014 20:10 14,7 C 83 % 1018,0 hPa 0,0 l/m 0,0 km/h (0 Bft) S-SO 157 11,8 C 22,8 C 0,0 km/h (0 Bft)
16.09.2014 20:18 14,6 C 85 % 1018,0 hPa 0,0 l/m 0,0 km/h (0 Bft) S-SO 157 12,1 C 22,8 C 0,0 km/h (0 Bft)
16.09.2014 20:20 14,6 C 85 % 1018,0 hPa 0,0 l/m 0,0 km/h (0 Bft) S-SO 157 12,1 C 22,8 C 0,0 km/h (0 Bft)
16.09.2014 20:30 14,4 C 85 % 1018,1 hPa 0,0 l/m 0,0 km/h (0 Bft) S-SO 157 11,9 C 22,8 C 0,0 km/h (0 Bft)
16.09.2014 20:40 13,9 C 85 % 1018,1 hPa 0,0 l/m 0,0 km/h (0 Bft) S-SO 157 11,4 C 22,8 C 0,0 km/h (0 Bft)
16.09.2014 20:50 13,6 C 85 % 1018,2 hPa 0,0 l/m 0,0 km/h (0 Bft) S-SO 157 11,1 C 22,8 C 0,0 km/h (0 Bft)
16.09.2014 21:00 13,9 C 86 % 1018,2 hPa 0,0 l/m 0,0 km/h (0 Bft) S-SO 157 11,6 C 22,8 C 0,0 km/h (0 Bft)
16.09.2014 21:10 14,1 C 86 % 1018,2 hPa 0,0 l/m 0,0 km/h (0 Bft) S-SO 157 11,8 C 22,8 C 0,0 km/h (0 Bft)
16.09.2014 21:20 13,8 C 87 % 1018,2 hPa 0,0 l/m 0,0 km/h (0 Bft) S-SO 157 11,7 C 22,8 C 0,0 km/h (0 Bft)
16.09.2014 21:30 13,7 C 87 % 1017,9 hPa 0,0 l/m 0,0 km/h (0 Bft) S-SO 157 11,6 C 22,8 C 0,0 km/h (0 Bft)
16.09.2014 21:40 13,7 C 88 % 1017,9 hPa 0,0 l/m 0,0 km/h (0 Bft) S-SO 157 11,7 C 22,8 C 0,0 km/h (0 Bft)
16.09.2014 21:50 13,4 C 88 % 1017,6 hPa 0,0 l/m 0,0 km/h (0 Bft) S-SO 157 11,5 C 22,8 C 0,0 km/h (0 Bft)
16.09.2014 22:00 13,2 C 89 % 1017,6 hPa 0,0 l/m 0,0 km/h (0 Bft) S-SO 157 11,4 C 22,8 C 0,0 km/h (0 Bft)
16.09.2014 22:10 13,2 C 89 % 1017,6 hPa 0,0 l/m 0,0 km/h (0 Bft) S-SO 157 11,4 C 22,8 C 0,0 km/h (0 Bft)
16.09.2014 22:20 13,1 C 89 % 1017,6 hPa 0,0 l/m 0,0 km/h (0 Bft) S-SO 157 11,3 C 22,8 C 0,0 km/h (0 Bft)
16.09.2014 22:30 12,2 C 89 % 1017,5 hPa 0,0 l/m 0,0 km/h (0 Bft) S-SO 157 10,4 C 22,8 C 0,0 km/h (0 Bft)
16.09.2014 22:40 11,8 C 89 % 1017,5 hPa 0,0 l/m 0,0 km/h (0 Bft) S-SO 157 10,0 C 22,8 C 0,0 km/h (0 Bft)
16.09.2014 22:50 11,8 C 89 % 1017,6 hPa 0,0 l/m 0,0 km/h (0 Bft) S-SO 157 10,0 C 22,8 C 0,0 km/h (0 Bft)
16.09.2014 23:00 11,7 C 90 % 1017,6 hPa 0,0 l/m 0,0 km/h (0 Bft) S-SO 157 10,1 C 22,8 C 0,0 km/h (0 Bft)
16.09.2014 23:10 11,2 C 90 % 1017,4 hPa 0,0 l/m 0,0 km/h (0 Bft) S-SO 157 9,6 C 22,8 C 0,0 km/h (0 Bft)
16.09.2014 23:20 11,9 C 91 % 1017,4 hPa 0,0 l/m 0,0 km/h (0 Bft) S-SO 157 10,5 C 22,8 C 0,0 km/h (0 Bft)
16.09.2014 23:30 11,3 C 91 % 1017,2 hPa 0,0 l/m 0,0 km/h (0 Bft) S-SO 157 9,9 C 22,8 C 0,0 km/h (0 Bft)
16.09.2014 23:40 10,5 C 90 % 1017,2 hPa 0,0 l/m 0,0 km/h (0 Bft) S-SO 157 8,9 C 22,8 C 0,0 km/h (0 Bft)
16.09.2014 23:50 10,6 C 91 % 1017,1 hPa 0,0 l/m 0,0 km/h (0 Bft) S-SO 157 9,2 C 22,8 C 0,0 km/h (0 Bft)
_ Min-Zeit 07:00 12:30 23:50 - 23:50 - - 07:00 06:50 23:50
Minimum _ 6,8 C 44 % 1017,1 hPa - 0,0 km/h (0 Bft) - - 6,1 C 6,7 C 0,0 km/h (0 Bft)
_ Max-Zeit 12:20 08:50 12:20 23:50 02:40 - - 10:20 23:50 02:40
Maximum _ 25,2 C 95 % 1019,9 hPa 0,0 l/m 0,6 km/h
SO (0 Bft)
- - 16,9 C 22,8 C 3,1 km/h
SO (1 Bft)
Durchschnitt _ 14,7 C 79 % 1018,4 hPa #0,0 l/m 0,0 km/h (0 Bft) N - 10,5 C 17,5 C 0,0 km/h (0 Bft)